Temp
-1 -0 -2 -3 -3 -2 -1 -1 -2 -1 -1 -0 0 -1 -1 -3 -3 -2 -2 -3 -3 -3 -4 -4 -5 -5 -5 -6 -6 -6 -7 -7 -7 -7 -7 -8 -8 -8 -8 -7 -6 -6 -6 -5
-4 -3 -1 -1 -1 -1 -0 -1 -1 -1 -1 -0 0 -0 -0 -3 -2 -2 -3 -3 -4 -4 -5 -5 -5 -6 -6 -6 -6 -7 -7 -8 -7 -8 -8 -8 -9 -9 -8 -7 -7 -6 -6 -6
-4 -3 -2 -2 -1 -1 -1 -0 -0 -0 0 1 1 0 -1 -2 -3 -3 -3 -4 -4 -4 -5 -6 -6 -6 -6 -7 -7 -8 -8 -8 -8 -8 -9 -9 -9 -8 -7 -7 -7 -6 -6 -6
-5 -4 -4 -2 -2 -1 -1 -1 -0 -0 -0 0 0 -1 -2 -3 -3 -3 -3 -4 -4 -5 -5 -6 -6 -6 -7 -7 -8 -8 -8 -9 -9 -9 -9 -8 -8 -8 -7 -7 -7 -6 -6 -6
-5 -4 -3 -2 -1 -2 -2 -2 -2 -2 -1 -1 -1 -2 -3 -3 -3 -3 -4 -4 -5 -5 -6 -6 -6 -7 -7 -8 -8 -9 -9 -9 -9 -9 -8 -8 -8 -8 -7 -7 -7 -7 -6 -6
-5 -5 -3 -3 -2 -2 -3 -4 -3 -3 -2 -2 -3 -3 -4 -4 -4 -4 -4 -5 -5 -6 -6 -6 -7 -7 -8 -8 -9 -9 -9 -9 -9 -9 -8 -8 -8 -8 -8 -7 -7 -7 -7 -7
-6 -6 -4 -4 -3 -4 -4 -3 -3 -3 -3 -4 -3 -3 -4 -5 -5 -5 -5 -6 -6 -6 -7 -7 -8 -8 -8 -9 -9 -9 -9 -8 -9 -9 -9 -8 -8 -8 -8 -8 -8 -8 -8 -8
-5 -5 -5 -4 -4 -5 -4 -4 -4 -4 -4 -4 -4 -4 -4 -5 -5 -5 -5 -6 -6 -7 -8 -8 -8 -9 -9 -9 -9 -9 -9 -9 -9 -9 -9 -8 -8 -8 -8 -8 -8 -8 -8 -8
-5 -5 -5 -6 -5 -5 -4 -5 -5 -4 -5 -4 -4 -4 -4 -5 -6 -5 -6 -7 -8 -8 -8 -8 -9 -9 -9 -9 -9 -9 -9 -9 -9 -9 -9 -9 -9 -9 -9 -9 -9 -9 -9 -8
-6 -5 -5 -6 -5 -5 -5 -5 -5 -5 -5 -5 -5 -5 -5 -5 -6 -6 -7 -8 -8 -8 -9 -9 -9 -10 -10 -9 -9 -9 -9 -9 -9 -9 -9 -9 -9 -9 -9 -9 -9 -9 -8 -8
-6 -6 -6 -6 -6 -5 -6 -5 -5 -5 -6 -6 -6 -6 -6 -6 -7 -7 -8 -8 -9 -9 -9 -10 -10 -10 -10 -9 -10 -9 -9 -9 -9 -9 -9 -9 -9 -9 -9 -9 -9 -9 -8 -8
-6 -6 -6 -6 -6 -6 -6 -6 -6 -6 -6 -6 -6 -6 -7 -7 -8 -9 -9 -9 -10 -10 -10 -10 -10 -10 -10 -10 -10 -10 -10 -10 -9 -9 -9 -9 -10 -10 -10 -10 -9 -9 -9 -9
-7 -6 -6 -7 -7 -7 -7 -7 -7 -7 -7 -7 -7 -7 -7 -8 -9 -9 -10 -10 -10 -10 -10 -10 -10 -10 -10 -10 -10 -10 -10 -10 -10 -9 -10 -10 -10 -10 -10 -10 -10 -10 -10 -11
-7 -7 -7 -7 -7 -7 -7 -7 -7 -7 -7 -7 -8 -7 -8 -8 -9 -10 -10 -10 -10 -11 -10 -11 -10 -10 -10 -10 -10 -10 -10 -10 -10 -10 -10 -10 -11 -11 -11 -11 -11 -11 -11 -11
-7 -7 -7 -7 -7 -7 -7 -7 -7 -7 -7 -8 -8 -8 -8 -9 -9 -10 -10 -11 -11 -11 -11 -11 -10 -10 -10 -10 -10 -10 -10 -10 -10 -10 -10 -11 -11 -11 -11 -11 -11 -11 -12 -12
-7 -7 -7 -7 -7 -7 -7 -7 -8 -7 -7 -8 -8 -8 -9 -10 -10 -10 -10 -11 -11 -11 -11 -11 -11 -11 -11 -11 -11 -11 -11 -10 -10 -10 -11 -11 -11 -11 -12 -12 -12 -13 -13 -13
-8 -8 -8 -7 -7 -7 -7 -8 -8 -8 -8 -8 -9 -9 -9 -9 -10 -10 -10 -11 -11 -11 -11 -11 -11 -11 -11 -11 -11 -11 -11 -11 -11 -11 -11 -12 -12 -12 -13 -13 -13 -14 -14 -14
-8 -8 -8 -7 -8 -8 -8 -8 -8 -8 -9 -9 -9 -9 -9 -10 -10 -10 -10 -11 -11 -11 -11 -11 -11 -11 -11 -11 -11 -11 -11 -11 -11 -12 -12 -12 -13 -13 -13 -14 -14 -14 -15 -15
-8 -8 -8 -8 -8 -8 -8 -8 -8 -9 -9 -9 -10 -10 -10 -10 -11 -11 -11 -11 -12 -12 -11 -11 -12 -12 -12 -12 -12 -12 -12 -12 -12 -12 -13 -13 -13 -14 -14 -14 -15 -15 -16 -16
-8 -8 -8 -8 -8 -8 -9 -9 -9 -9 -10 -10 -10 -10 -10 -11 -11 -11 -12 -13 -12 -12 -12 -12 -12 -12 -12 -12 -12 -12 -12 -12 -13 -13 -13 -13 -14 -14 -15 -15 -16 -16 -17 -17
-8 -8 -8 -9 -9 -9 -9 -9 -9 -10 -10 -10 -11 -11 -11 -11 -11 -12 -12 -13 -13 -12 -12 -13 -13 -13 -13 -13 -13 -13 -13 -13 -13 -13 -14 -14 -15 -15 -16 -16 -17 -17 -17 -18
-8 -9 -9 -9 -9 -9 -9 -10 -10 -10 -11 -11 -11 -11 -12 -12 -12 -12 -12 -13 -14 -13 -13 -13 -13 -13 -13 -13 -13 -13 -13 -14 -14 -14 -15 -15 -15 -16 -17 -17 -17 -18 -18 -19
-9 -9 -9 -9 -9 -9 -10 -10 -11 -11 -11 -12 -12 -12 -12 -13 -13 -13 -13 -13 -15 -14 -13 -13 -14 -14 -14 -14 -14 -14 -14 -14 -14 -15 -15 -16 -16 -17 -17 -18 -18 -19 -19 -20
-9 -9 -9 -10 -10 -10 -10 -11 -11 -11 -12 -12 -12 -13 -13 -13 -13 -13 -13 -14 -15 -15 -14 -14 -14 -14 -14 -14 -14 -14 -14 -15 -15 -16 -16 -17 -17 -17 -18 -18 -19 -19 -20 -20
-10 -10 -10 -10 -10 -10 -11 -11 -12 -12 -12 -13 -13 -13 -14 -14 -14 -14 -14 -14 -16 -15 -14 -14 -15 -15 -15 -15 -15 -15 -15 -16 -16 -17 -17 -17 -18 -18 -18 -19 -20 -20 -20 -21
-10 -10 -11 -11 -11 -11 -11 -12 -12 -12 -12 -13 -13 -14 -14 -14 -14 -14 -14 -15 -16 -16 -15 -15 -15 -15 -16 -16 -16 -16 -16 -16 -17 -18 -18 -18 -18 -19 -19 -20 -20 -20 -21 -21
-10 -11 -11 -11 -11 -12 -12 -12 -12 -13 -13 -13 -13 -14 -14 -14 -14 -15 -15 -15 -16 -17 -16 -16 -16 -16 -16 -16 -16 -16 -17 -17 -18 -18 -18 -18 -19 -19 -20 -20 -21 -21 -21 -22
Height
3031 3030 3028 3029 3032 3032 3030 3031 3033 3031 3033 3033 3034 3034 3029 3030 3025 3027 3027 3026 3028 3026 3027 3029 3029 3028 3026 3024 3023 3020 3018 3016 3014 3012 3010 3008 3006 3004 3002 3001 2999 2998 2996 2994
3022 3022 3023 3022 3025 3022 3025 3024 3024 3026 3024 3027 3029 3028 3027 3020 3017 3021 3019 3020 3020 3021 3022 3023 3023 3023 3021 3020 3018 3016 3014 3013 3011 3009 3007 3006 3004 3003 3002 3000 2998 2996 2995 2993
3013 3019 3018 3016 3007 3016 3015 3014 3018 3016 3018 3019 3019 3020 3016 3016 3012 3013 3013 3014 3013 3015 3016 3017 3018 3017 3017 3016 3014 3013 3011 3010 3009 3007 3006 3005 3004 3003 3001 2999 2997 2995 2993 2991
3007 3011 3005 3002 3006 3007 3006 3007 3008 3009 3009 3010 3011 3013 3010 3010 3007 3007 3006 3007 3007 3009 3010 3011 3012 3012 3012 3011 3011 3010 3009 3008 3007 3006 3005 3004 3003 3002 3000 2998 2996 2994 2992 2990
3003 3000 2998 2999 2999 3000 3000 2997 3000 3002 3002 3003 3005 3001 3000 3001 3000 3000 3000 3001 3003 3004 3005 3006 3007 3008 3007 3007 3007 3007 3007 3007 3006 3005 3004 3003 3002 3000 2998 2996 2994 2993 2990 2988
2999 2995 2990 2989 2995 2996 2992 2988 2993 2993 2993 2996 2993 2993 2994 2993 2992 2992 2994 2996 2997 2997 3000 3002 3003 3003 3003 3004 3004 3005 3005 3005 3004 3004 3003 3002 3001 2999 2997 2995 2993 2991 2988 2987
2989 2989 2985 2981 2988 2989 2991 2985 2985 2986 2986 2986 2986 2987 2986 2984 2986 2987 2989 2990 2992 2994 2996 2997 2998 2999 3000 3001 3002 3003 3004 3003 3003 3003 3002 3001 2999 2997 2995 2993 2991 2989 2987 2985
2982 2982 2980 2977 2978 2980 2981 2980 2979 2979 2980 2979 2979 2980 2979 2980 2981 2981 2983 2986 2988 2990 2992 2993 2994 2995 2997 2999 3000 3001 3002 3002 3002 3001 3000 2999 2997 2995 2993 2991 2989 2988 2986 2983
2977 2973 2971 2970 2973 2973 2973 2974 2974 2975 2974 2974 2974 2975 2974 2974 2976 2977 2979 2981 2984 2986 2988 2989 2991 2993 2995 2997 2998 3000 3000 3000 3000 3000 2999 2997 2995 2993 2991 2989 2988 2986 2984 2982
2970 2966 2967 2966 2967 2968 2970 2970 2969 2969 2968 2969 2969 2970 2970 2970 2971 2972 2974 2977 2979 2982 2984 2986 2988 2990 2993 2995 2997 2998 2999 2999 2998 2998 2997 2995 2993 2991 2990 2988 2986 2984 2981 2979
2960 2962 2960 2959 2961 2962 2963 2964 2964 2964 2964 2965 2964 2965 2965 2966 2967 2968 2971 2973 2975 2977 2980 2982 2985 2988 2991 2993 2995 2996 2997 2998 2997 2997 2995 2993 2991 2990 2988 2986 2984 2981 2979 2976
2955 2954 2952 2953 2955 2956 2957 2958 2958 2958 2959 2960 2960 2960 2961 2961 2962 2964 2966 2968 2971 2974 2976 2979 2983 2986 2989 2991 2993 2995 2996 2996 2996 2995 2993 2991 2990 2988 2986 2984 2981 2979 2975 2973
2948 2947 2949 2950 2950 2951 2951 2952 2952 2953 2953 2954 2955 2955 2956 2957 2958 2960 2962 2964 2967 2970 2974 2977 2981 2984 2987 2989 2991 2993 2994 2994 2994 2992 2991 2990 2988 2986 2984 2981 2977 2976 2973 2970
2943 2943 2944 2945 2946 2946 2946 2946 2947 2948 2948 2948 2950 2951 2952 2953 2954 2956 2958 2962 2965 2968 2972 2976 2979 2982 2985 2988 2989 2991 2991 2991 2991 2990 2988 2987 2985 2983 2980 2977 2975 2973 2969 2965
2938 2939 2939 2941 2941 2941 2942 2942 2942 2943 2944 2944 2946 2947 2948 2950 2951 2954 2957 2960 2963 2966 2970 2974 2977 2980 2983 2985 2987 2988 2989 2988 2987 2986 2985 2984 2983 2981 2978 2974 2970 2967 2964 2961
2935 2935 2936 2937 2937 2937 2937 2937 2938 2939 2941 2942 2943 2944 2946 2947 2949 2952 2955 2958 2962 2965 2969 2973 2976 2979 2981 2983 2984 2985 2986 2986 2984 2982 2982 2981 2980 2977 2974 2971 2967 2964 2961 2957
2933 2933 2933 2934 2934 2934 2934 2934 2935 2936 2937 2939 2940 2942 2943 2945 2948 2951 2954 2957 2960 2965 2968 2971 2974 2977 2979 2981 2982 2982 2982 2982 2981 2980 2979 2978 2976 2973 2970 2967 2963 2960 2957 2953
2931 2931 2931 2932 2932 2932 2932 2932 2932 2933 2935 2936 2938 2940 2942 2945 2947 2950 2953 2956 2959 2963 2966 2969 2972 2974 2976 2978 2979 2979 2979 2979 2977 2976 2975 2973 2971 2968 2966 2962 2959 2956 2953 2950
2929 2929 2929 2929 2929 2929 2929 2930 2930 2931 2933 2935 2936 2938 2940 2943 2945 2948 2951 2955 2958 2962 2965 2967 2969 2971 2973 2974 2975 2976 2975 2974 2973 2972 2970 2969 2966 2964 2961 2957 2954 2951 2948 2945
2927 2927 2927 2926 2926 2926 2927 2927 2928 2929 2931 2932 2934 2935 2938 2940 2942 2945 2948 2952 2955 2958 2961 2964 2966 2968 2970 2971 2972 2972 2971 2970 2969 2968 2966 2964 2961 2959 2956 2953 2950 2947 2944 2940
2925 2925 2924 2924 2924 2925 2925 2925 2926 2927 2929 2930 2932 2933 2936 2938 2940 2942 2944 2948 2953 2955 2958 2961 2963 2965 2966 2967 2968 2967 2967 2966 2965 2963 2961 2959 2956 2954 2951 2948 2945 2942 2939 2935
2923 2923 2923 2924 2924 2924 2924 2924 2925 2925 2926 2928 2929 2931 2933 2935 2937 2939 2941 2945 2949 2953 2955 2958 2960 2961 2962 2963 2964 2963 2962 2961 2960 2958 2956 2954 2951 2948 2945 2942 2940 2937 2934 2930
2921 2922 2923 2923 2923 2922 2922 2923 2923 2924 2924 2925 2927 2929 2930 2932 2935 2937 2940 2942 2945 2949 2951 2954 2956 2957 2958 2959 2959 2958 2958 2956 2955 2953 2950 2948 2945 2943 2940 2937 2934 2932 2928 2925
2920 2921 2922 2922 2922 2922 2922 2921 2921 2922 2922 2922 2923 2925 2927 2929 2931 2933 2935 2938 2942 2945 2948 2950 2951 2952 2954 2954 2954 2953 2952 2951 2949 2947 2945 2943 2940 2937 2934 2931 2929 2926 2923 2920
2919 2920 2920 2921 2921 2921 2921 2921 2921 2921 2921 2921 2922 2922 2924 2926 2928 2930 2933 2935 2937 2940 2944 2945 2947 2948 2949 2949 2949 2948 2947 2945 2943 2941 2939 2937 2934 2932 2929 2926 2924 2921 2918 2914
2917 2918 2919 2920 2920 2920 2920 2920 2919 2919 2919 2920 2920 2921 2922 2923 2925 2927 2929 2931 2933 2937 2939 2941 2942 2943 2944 2944 2944 2942 2941 2939 2937 2936 2933 2931 2928 2926 2923 2921 2918 2915 2912 2909
2915 2916 2917 2917 2918 2918 2918 2918 2917 2917 2917 2918 2918 2919 2920 2921 2922 2924 2926 2928 2930 2933 2935 2936 2938 2938 2939 2939 2938 2937 2935 2933 2931 2929 2927 2925 2923 2920 2918 2915 2912 2910 2906 2903
Wind_Speed
32 32 22 20 18 20 25 28 25 28 27 29 25 24 30 22 30 32 27 27 27 31 31 27 26 25 24 24 24 20 17 16 15 14 13 13 12 7 2 3 4 5 7 8
35 27 30 30 30 34 31 33 34 33 35 30 30 31 27 24 36 29 21 25 30 31 29 25 25 23 22 23 21 16 14 13 13 12 11 9 5 3 4 4 5 6 8 10
33 29 29 29 44 34 36 38 37 41 39 34 33 28 24 23 33 25 21 26 28 29 28 23 22 22 21 19 16 13 11 11 10 9 5 3 3 6 6 6 6 7 8 10
14 15 13 23 22 29 31 34 32 34 32 33 31 27 23 24 33 29 26 27 27 25 23 19 20 21 19 16 12 9 9 8 5 3 1 3 5 6 5 6 7 7 8 10
17 21 24 24 22 18 21 30 27 24 27 27 23 27 29 33 32 28 26 24 24 23 22 19 20 19 16 13 9 8 5 4 3 4 4 7 6 5 5 5 5 7 9 10
24 20 18 33 28 28 21 28 26 26 26 23 28 32 28 30 31 28 24 21 27 18 21 22 19 16 13 10 9 8 7 6 4 5 5 5 4 4 4 6 7 9 11 12
34 27 32 39 31 22 19 35 19 16 18 18 23 27 28 27 20 21 22 22 20 21 23 19 16 13 11 10 10 9 7 4 5 5 4 4 4 4 6 7 9 11 12 13
24 29 23 22 12 25 26 24 20 18 17 21 23 21 21 21 20 19 21 20 23 23 21 17 14 12 11 12 12 9 6 5 6 5 4 4 5 6 7 9 10 11 13 15
22 16 14 10 15 16 13 23 23 23 20 16 16 16 17 18 19 19 20 23 24 21 19 17 14 13 14 13 11 9 7 6 5 5 5 5 6 7 9 10 11 12 13 14
18 24 26 26 22 18 20 22 20 17 19 19 18 17 16 16 17 18 20 21 22 22 19 17 15 15 15 13 11 9 8 6 5 5 5 6 7 9 10 10 11 12 14 16
24 22 25 26 19 17 22 21 21 22 22 16 17 19 18 17 17 18 19 21 23 21 19 17 18 17 15 13 11 9 8 6 5 6 6 8 9 10 11 11 12 13 15 17
24 21 20 14 15 17 21 21 22 23 22 20 18 17 17 17 18 19 20 22 22 20 19 20 19 17 16 14 12 10 8 6 6 6 8 10 10 11 12 12 13 15 17 19
18 20 19 16 16 16 17 19 20 20 18 21 20 18 17 18 18 19 21 21 20 19 20 21 19 17 16 14 12 9 7 6 6 7 9 11 12 13 12 13 15 16 17 18
18 18 19 19 17 16 17 18 18 22 20 19 18 18 17 17 17 18 18 19 20 20 21 20 19 17 16 14 11 9 7 6 7 8 10 12 14 15 15 16 17 17 19 21
16 15 16 15 16 16 17 18 19 19 18 19 19 18 16 15 17 18 19 20 21 22 21 20 19 18 16 14 11 9 7 7 6 8 11 14 15 16 17 17 19 21 23 25
12 15 15 14 15 16 15 17 19 18 17 16 16 16 16 18 18 18 19 21 21 20 21 20 19 18 16 14 12 10 8 8 8 9 12 14 16 16 17 19 19 21 22 24
10 10 12 13 12 12 12 13 17 18 17 15 15 16 18 18 19 20 21 21 20 21 20 19 19 18 16 14 12 10 9 8 9 10 12 15 16 17 18 18 20 22 23 24
9 9 10 11 11 11 12 12 13 14 15 16 15 16 16 18 19 20 20 20 22 22 21 20 19 18 16 14 13 11 10 9 10 11 13 16 17 18 19 20 21 22 23 23
8 8 9 9 9 11 12 12 13 14 15 14 15 16 19 20 20 21 21 22 22 21 21 21 20 18 16 15 13 12 11 10 11 13 15 17 18 19 20 20 21 22 23 24
7 7 7 8 8 9 10 11 13 14 15 17 19 20 21 22 24 24 23 23 24 22 22 21 20 18 16 15 14 13 12 12 13 15 17 18 19 19 20 20 21 22 22 23
5 4 4 4 4 5 7 9 11 14 16 18 19 20 20 22 24 25 26 25 21 22 22 21 20 18 17 15 14 13 13 14 15 17 18 19 19 19 20 20 20 21 22 22
4 3 1 1 1 1 2 4 7 11 14 16 18 19 21 22 23 25 27 24 22 21 21 21 20 18 17 16 15 14 14 15 17 18 19 19 20 20 20 20 20 21 21 21
4 3 2 1 1 1 2 4 6 8 9 11 13 15 17 19 20 22 24 23 22 22 23 22 20 19 18 17 16 15 16 17 19 19 20 20 20 20 20 20 21 21 21 21
5 5 4 3 4 4 5 5 7 8 10 11 13 14 14 16 19 21 24 24 22 22 21 21 21 20 18 17 16 17 18 19 20 20 20 20 20 20 20 21 21 21 21 22
8 7 6 5 5 5 5 5 6 7 7 9 11 13 15 17 18 20 22 25 24 23 22 22 21 19 17 17 18 19 20 20 20 20 20 20 20 20 21 21 21 21 21 22
10 10 9 8 8 7 7 7 7 7 6 7 9 11 14 17 19 20 24 24 25 21 20 20 20 18 18 18 20 20 20 21 20 20 21 21 21 21 21 21 21 22 22 22
10 10 11 10 10 9 9 9 8 8 9 8 9 11 13 15 17 19 22 24 22 20 21 20 21 18 17 20 21 21 22 21 19 20 21 21 21 21 21 21 22 22 23 23
Wind_Direction
244 248 249 255 255 253 251 252 248 259 262 259 266 278 293 240 258 284 289 249 255 261 261 266 273 284 298 306 308 310 308 306 302 302 305 306 298 292 330 346 2 2 359 6
259 258 258 261 259 257 259 257 258 262 264 270 277 279 273 247 269 283 272 255 265 261 260 259 268 282 295 300 305 305 302 299 298 302 302 297 294 341 317 332 349 356 349 348
253 250 257 261 253 261 259 258 262 263 266 273 274 277 265 252 263 271 263 258 265 261 257 253 266 284 291 299 303 297 295 291 291 289 289 339 347 306 309 330 341 349 348 348
254 263 257 251 257 258 264 260 259 262 262 265 269 268 260 248 253 264 263 260 260 254 250 251 271 282 289 296 290 287 283 280 283 308 282 322 299 304 319 332 339 346 351 353
246 254 261 264 256 253 256 262 258 262 269 262 261 255 250 256 263 268 262 255 253 253 248 252 276 277 286 283 272 264 249 215 252 289 282 298 300 310 321 336 348 355 360 1
247 250 256 260 263 267 280 263 268 263 256 253 251 249 261 268 262 263 257 256 248 240 257 260 266 274 275 262 250 228 219 251 287 291 284 288 307 323 335 349 357 358 360 356
242 250 258 261 255 270 250 261 266 246 238 244 254 255 255 258 260 250 249 249 238 254 252 256 261 265 252 240 226 225 235 252 275 278 281 294 312 336 351 356 356 357 352 348
237 245 256 257 239 223 254 248 247 260 263 263 262 262 263 253 256 252 237 233 243 251 247 249 250 245 231 218 215 226 233 242 254 265 284 305 330 343 348 351 350 346 343 344
250 263 278 271 249 257 277 260 254 268 266 262 261 257 253 249 245 240 238 235 240 237 238 239 237 224 213 210 214 225 232 231 240 264 288 311 332 341 346 347 341 338 338 337
255 260 257 256 249 253 259 269 256 257 271 271 265 260 253 245 244 240 233 228 227 232 233 232 221 211 207 209 212 217 222 232 253 279 300 319 331 335 336 334 332 333 334 336
251 257 258 257 250 255 254 252 255 262 265 259 259 254 250 247 242 234 228 225 229 228 227 219 210 205 205 204 210 214 226 241 262 287 310 322 329 330 328 327 326 330 334 336
257 262 256 249 252 251 255 251 256 258 256 253 258 253 255 247 238 232 230 227 224 225 216 207 200 199 201 205 206 215 227 249 276 298 318 324 324 324 323 323 326 329 332 334
256 245 251 266 263 258 253 250 253 251 260 256 249 254 256 245 237 229 224 223 221 211 205 200 197 198 201 202 208 217 233 259 284 311 321 320 321 321 318 324 330 329 329 331
264 253 252 253 254 258 258 258 255 250 261 242 243 251 247 241 227 217 213 209 204 200 196 192 194 196 199 204 212 219 235 262 295 314 319 324 323 319 321 326 328 328 331 335
255 247 249 252 261 260 259 256 253 252 253 246 245 243 236 227 210 205 203 200 199 195 190 194 196 198 199 206 216 225 242 264 290 315 323 321 318 317 318 324 332 334 333 334
261 250 250 255 260 265 265 253 243 242 241 244 238 233 218 212 209 201 199 197 197 193 194 197 199 201 205 211 218 228 247 273 298 313 314 313 313 316 323 326 330 330 330 331
260 251 251 255 260 256 258 246 238 236 236 230 225 220 217 214 206 200 198 197 193 196 200 201 203 206 210 215 223 233 249 270 291 306 310 311 315 318 322 326 328 328 328 329
258 256 257 258 260 261 257 253 245 234 225 219 219 218 216 210 208 205 202 200 202 205 205 205 206 209 214 220 230 242 256 275 294 305 310 312 315 319 321 325 326 325 326 327
252 256 260 262 260 259 258 257 246 235 231 225 216 213 210 209 207 207 207 206 206 207 210 210 210 213 218 226 236 249 263 282 297 305 310 312 315 318 320 323 323 324 324 326
250 255 262 263 260 256 255 255 251 239 229 225 221 217 215 212 213 209 206 206 208 207 209 212 215 217 224 233 244 257 273 288 299 306 308 312 314 316 319 320 321 321 322 324
242 257 266 257 246 247 251 252 245 239 238 235 230 225 222 221 221 215 211 211 211 213 214 216 220 224 231 240 251 265 278 290 300 305 308 311 313 315 317 317 318 318 320 323
225 224 217 192 175 174 223 245 249 246 244 240 237 233 229 229 227 224 218 208 210 216 218 221 226 231 238 248 259 271 284 293 301 306 308 310 312 313 315 316 317 317 318 320
206 206 194 209 285 269 256 245 239 240 240 242 242 242 241 233 231 233 230 213 205 216 222 224 229 235 243 253 264 277 287 296 302 305 307 308 310 312 313 315 315 315 316 318
206 207 218 264 277 271 273 267 247 243 239 230 226 226 226 230 228 226 225 210 204 222 226 228 233 239 246 256 271 283 291 295 300 302 304 306 309 311 312 313 312 312 314 317
217 222 235 251 267 275 274 263 255 252 252 246 235 225 220 218 219 230 229 216 211 216 223 231 236 243 251 267 276 282 286 294 298 300 304 306 308 310 310 311 310 310 312 315
228 233 242 253 263 269 275 268 265 263 256 251 247 240 234 229 231 229 229 220 215 221 229 234 241 247 260 270 277 281 288 293 295 300 303 305 307 308 310 309 307 309 312 313
237 241 246 255 265 269 273 271 262 258 261 262 257 249 246 246 244 236 237 230 223 222 233 236 246 257 266 271 276 281 289 291 296 301 303 304 305 307 308 307 307 309 310 310